Flight Track Log - Related Links

Times and Time Zones

All times are in EDT time to prevent confusion due to time zone crossing. See the GJS3710 flight status page for this flight to view local times or setup timezone preferences in your user account.

Time Position Orientation Groundspeed Altitude Reporting Facility
EDT Latitude Longitude Course Direction KTS MPH feet Rate Location/Type
Mon 09:46:23 PM 41.9833 -87.8500 66° East 176 203 2,300  Level Chicago TRACON
Mon 09:48:06 PM 41.9992 -87.7167 81° East 253 291 6,200 2,764 Climbing Chicago Center
Mon 09:49:00 PM 42.1506 -87.3982 66° East  Level FlightAware Approximate
Mon 09:49:08 PM 42.0450 -87.6128 59° Northeast 270 311 9,900  Level Chicago Center
Mon 09:50:00 PM 42.1942 -87.2676 66° East  Level FlightAware Approximate
Mon 09:50:09 PM 42.0875 -87.5106 61° Northeast 329 379 11,300  Level Chicago Center
Mon 09:51:00 PM 42.2377 -87.1369 66° East  Level FlightAware Approximate
Mon 09:51:11 PM 42.1381 -87.3950 59° Northeast 360 414 12,700  Level Chicago Center
Mon 09:52:12 PM 42.1833 -87.2647 65° Northeast 390 449 14,600 1,951 Climbing Chicago Center
Mon 09:53:14 PM 42.1911 -87.1136 86° East 404 465 16,700 1,756 Climbing Chicago Center
Mon 09:54:15 PM 42.1992 -86.9611 86° East 409 471 18,200 1,565 Climbing Chicago Center
Mon 09:56:00 PM 42.1877 -86.7090 93° East  Level FlightAware Approximate
Mon 09:56:18 PM 42.2136 -86.6078 93° East 437 503 21,500  Level Chicago Center
Mon 09:57:19 PM 42.2211 -86.4406 86° East 445 512 23,000 1,475 Climbing Chicago Center
Mon 09:58:20 PM 42.2275 -86.2739 87° East 445 512 24,500 1,415 Climbing Chicago Center
Mon 09:59:22 PM 42.2342 -86.1069 87° East 446 513 25,900 1,268 Climbing Chicago Center
Mon 10:00:23 PM 42.2394 -85.9544 87° East 444 511 27,100 1,220 Climbing Chicago Center
Mon 10:01:25 PM 42.2467 -85.7886 87° East 444 511 28,400 1,220 Climbing Chicago Center
Mon 10:02:26 PM 42.2533 -85.5892 87° East 448 516 29,600 1,082 Climbing Chicago Center
Mon 10:03:27 PM 42.2575 -85.4222 88° East 448 516 30,600 1,019 Climbing Chicago Center
Mon 10:04:12 PM 42.2636 -85.2947 86° East 450 518 31,400 1,029 Climbing Cleveland Center
Mon 10:05:12 PM 42.2703 -85.1267 87° East 450 518 32,400 1,000 Climbing Cleveland Center
Mon 10:06:12 PM 42.2767 -84.9644 87° East 438 504 33,400 900 Climbing Cleveland Center
Mon 10:07:12 PM 42.2806 -84.8017 88° East 438 504 34,200 850 Climbing Cleveland Center
Mon 10:08:12 PM 42.2797 -84.6531 90° East 438 504 35,100 900 Climbing Cleveland Center
Mon 10:09:12 PM 42.2833 -84.4903 88° East 438 504 36,000 633 Climbing Cleveland Center
Mon 10:11:12 PM 42.3292 -84.1700 79° East 438 504 37,000 333 Climbing Cleveland Center
Mon 10:12:12 PM 42.3508 -84.0056 80° East 438 504 37,000  Level Cleveland Center
Mon 10:13:12 PM 42.3744 -83.8436 79° East 443 510 37,000  Level Cleveland Center
Mon 10:15:12 PM 42.4083 -83.5108 82° East 443 510 37,000  Level Cleveland Center
Mon 10:17:12 PM 42.4250 -83.1597 86° East 443 510 37,000  Level Cleveland Center
Mon 10:18:12 PM 42.4286 -82.9939 88° East 443 510 37,000  Level Cleveland Center
Mon 10:19:12 PM 42.4342 -82.8281 87° East 437 503 37,000  Level Cleveland Center
Mon 10:20:12 PM 42.4392 -82.6622 88° East 437 503 37,000  Level Cleveland Center
Mon 10:21:12 PM 42.4444 -82.4936 88° East 437 503 37,000  Level Cleveland Center
Mon 10:22:12 PM 42.4469 -82.3278 89° East 437 503 37,000  Level Cleveland Center
Mon 10:23:12 PM 42.4514 -82.1589 88° East 437 503 37,000  Level Cleveland Center
Mon 10:24:12 PM 42.4558 -81.9903 88° East 437 503 37,000  Level Cleveland Center
Mon 10:25:12 PM 42.4597 -81.8242 88° East 442 509 37,000  Level Cleveland Center
Mon 10:26:12 PM 42.4656 -81.6725 87° East 442 509 37,000  Level Cleveland Center
Mon 10:27:12 PM 42.4689 -81.5064 88° East 442 509 37,000  Level Cleveland Center
Mon 10:28:12 PM 42.4703 -81.3347 89° East 442 509 37,000  Level Cleveland Center
Mon 10:29:12 PM 42.4733 -81.1517 89° East 442 509 37,000  Level Cleveland Center
Mon 10:30:12 PM 42.4783 -80.9772 88° East 442 509 37,000  Level Cleveland Center
Mon 10:31:12 PM 42.4808 -80.8083 89° East 442 509 37,000  Level Cleveland Center
Mon 10:32:12 PM 42.4853 -80.6394 88° East 442 509 37,000  Level Cleveland Center
Mon 10:33:12 PM 42.4997 -80.4733 83° East 442 509 37,000  Level Cleveland Center
Mon 10:34:12 PM 42.5078 -80.2986 86° East 447 514 37,000  Level Cleveland Center
Mon 10:35:12 PM 42.5219 -80.1269 84° East 453 521 37,000  Level Cleveland Center
Mon 10:37:12 PM 42.5431 -79.8083 85° East 448 516 37,000  Level Cleveland Center
Mon 10:38:12 PM 42.5522 -79.6361 86° East 448 516 37,000  Level Cleveland Center
Mon 10:39:12 PM 42.5611 -79.4669 86° East 448 516 37,000  Level Cleveland Center
Mon 10:41:12 PM 42.5844 -79.1225 85° East 453 521 37,000  Level Cleveland Center
Mon 10:42:12 PM 42.5903 -78.9503 87° East 453 521 37,000 -150 Level Cleveland Center
Mon 10:43:12 PM 42.6003 -78.7781 85° East 458 527 36,700 -667 Descending Cleveland Center
Mon 10:45:12 PM 42.6172 -78.4303 86° East 465 535 35,000 -567 Descending Cleveland Center
Mon 10:46:12 PM 42.6264 -78.2550 86° East 465 535 35,000  Level Cleveland Center
Mon 10:47:12 PM 42.6331 -78.0800 87° East 465 535 35,000  Level Cleveland Center
Mon 10:48:12 PM 42.6417 -77.9044 86° East 465 535 35,000  Level Cleveland Center
Mon 10:49:12 PM 42.6517 -77.7092 86° East 465 535 35,000 -550 Level Cleveland Center
Mon 10:50:12 PM 42.6575 -77.5339 87° East 470 541 33,900 -1,608 Descending Cleveland Center
Mon 10:52:26 PM 42.6725 -77.1286 87° East 477 549 29,800 -1,515 Descending Boston Center
Mon 10:53:26 PM 42.6775 -76.9539 88° East 472 543 29,000 -400 Descending Boston Center
Mon 10:54:26 PM 42.6844 -76.7792 87° East 467 537 29,000  Level Boston Center
Mon 10:55:26 PM 42.6911 -76.6017 87° East 462 532 29,000  Level Boston Center
Mon 10:56:26 PM 42.6975 -76.4239 87° East 462 532 29,000  Level Boston Center
Mon 10:57:26 PM 42.7033 -76.2492 87° East 462 532 29,000  Level Boston Center
Mon 10:58:26 PM 42.7064 -76.0939 88° East 456 525 29,000  Level Boston Center
Mon 10:59:26 PM 42.7119 -75.9217 87° East 456 525 29,000  Level Boston Center
Mon 11:00:26 PM 42.7169 -75.7494 88° East 456 525 29,000 -250 Level Boston Center
Mon 11:01:26 PM 42.7222 -75.5689 88° East 462 532 28,500 -1,750 Descending Boston Center
Mon 11:02:26 PM 42.7225 -75.3964 90° East 456 525 25,500 -2,800 Descending Boston Center
Mon 11:03:26 PM 42.7286 -75.2328 87° East 445 512 22,900 -2,550 Descending Boston Center
Mon 11:04:26 PM 42.7306 -75.0661 89° East 439 505 20,400 -2,500 Descending Boston Center
Mon 11:05:26 PM 42.7361 -74.9108 87° East 434 499 17,900 -2,625 Descending Boston Center
Mon 11:05:46 PM 42.7356 -74.8486 91° East 407 468 16,900 -2,700 Descending Boston Center
Mon 11:06:26 PM 42.7375 -74.7469 88° East 414 476 15,200 -2,400 Descending Boston Center
Mon 11:07:26 PM 42.7381 -74.6139 90° East 381 438 12,900 -2,103 Descending Boston Center
Mon 11:08:23 PM 42.7533 -74.4731 82° East 359 413 11,100 -1,525 Descending Boston Center
Mon 11:09:24 PM 42.7761 -74.3581 75° East 296 341 9,900 -1,488 Descending Boston Center
Mon 11:10:24 PM 42.7986 -74.2539 74° East 282 325 8,100 -1,736 Descending Boston Center
Mon 11:11:25 PM 42.8147 -74.1525 78° East 276 318 6,400 -1,721 Descending Boston Center
Mon 11:12:26 PM 42.8328 -74.0567 76° East 271 312 4,600 -1,785 Descending Boston Center
Mon 11:13:26 PM 42.8489 -73.9581 77° East 271 312 2,800 -1,134 Descending Boston Center
Mon 11:14:33 PM 42.8564 -73.8478 85° East 214 246 2,200 -516 Descending Boston Center
Mon 11:15:34 PM 42.8236 -73.8131 142° Southeast 147 169 1,700 -492 Descending Boston Center

Login

Don't have an account? Register now (free) for customized features, flight alerts, and more!